TimeEDT,TemperatureF,Dew PointF,Humidity,Sea Level PressureIn,VisibilityMPH,Wind Direction,Wind SpeedMPH,Gust SpeedMPH,PrecipitationIn,Events,Conditions,WindDirDegrees,DateUTC
12:15 AM,73.4,66.2,78,30.26,10.0,ENE,5.8,-,N/A,,Clear,60,2013-04-27 04:15:00
12:35 AM,73.4,66.2,78,30.26,10.0,ENE,6.9,-,N/A,,Scattered Clouds,60,2013-04-27 04:35:00
12:55 AM,73.4,66.2,78,30.26,10.0,East,4.6,-,N/A,,Scattered Clouds,90,2013-04-27 04:55:00
1:15 AM,73.4,66.2,78,30.25,10.0,East,5.8,-,N/A,,Clear,80,2013-04-27 05:15:00
1:35 AM,71.6,66.2,83,30.24,10.0,East,3.5,-,N/A,,Clear,80,2013-04-27 05:35:00
1:55 AM,71.6,68.0,88,30.23,10.0,Calm,Calm,-,N/A,,Clear,0,2013-04-27 05:55:00
2:15 AM,71.6,68.0,88,30.22,10.0,Calm,Calm,-,N/A,,Clear,0,2013-04-27 06:15:00
2:35 AM,69.8,69.8,100,30.22,10.0,Calm,Calm,-,N/A,,Clear,0,2013-04-27 06:35:00
3:15 AM,69.8,-9999,N/A,30.21,10.0,Calm,Calm,-,N/A,,Clear,0,2013-04-27 07:15:00
3:35 AM,69.8,-9999,N/A,30.21,10.0,Calm,Calm,-,N/A,,Clear,0,2013-04-27 07:35:00
3:55 AM,69.8,-9999,N/A,30.21,10.0,Calm,Calm,-,N/A,,Scattered Clouds,0,2013-04-27 07:55:00
4:15 AM,68.0,-9999,N/A,30.21,7.0,Calm,Calm,-,N/A,,Mostly Cloudy,0,2013-04-27 08:15:00
4:35 AM,68.0,-9999,N/A,30.21,10.0,Calm,Calm,-,N/A,,Scattered Clouds,0,2013-04-27 08:35:00
4:55 AM,68.0,-9999,N/A,30.20,10.0,North,3.5,-,N/A,,Mostly Cloudy,360,2013-04-27 08:55:00
5:15 AM,68.0,-9999,N/A,30.20,7.0,NNE,3.5,-,N/A,,Scattered Clouds,20,2013-04-27 09:15:00
5:35 AM,68.0,-9999,N/A,30.20,7.0,Calm,Calm,-,N/A,,Clear,0,2013-04-27 09:35:00
5:55 AM,66.2,-9999,N/A,30.20,5.0,Calm,Calm,-,N/A,,Haze,0,2013-04-27 09:55:00
6:15 AM,66.2,-9999,N/A,30.20,5.0,ENE,3.5,-,N/A,,Haze,60,2013-04-27 10:15:00
7:35 AM,68.0,-9999,N/A,30.22,5.0,NNE,3.5,-,N/A,,Haze,30,2013-04-27 11:35:00
7:55 AM,69.8,-9999,N/A,30.22,7.0,Calm,Calm,-,N/A,,Clear,0,2013-04-27 11:55:00
8:15 AM,69.8,-9999,N/A,30.22,7.0,ENE,4.6,-,N/A,,Clear,70,2013-04-27 12:15:00
8:35 AM,73.4,-9999,N/A,30.22,10.0,NE,3.5,-,N/A,,Clear,50,2013-04-27 12:35:00
8:55 AM,75.2,73.4,94,30.23,10.0,East,4.6,-,N/A,,Clear,80,2013-04-27 12:55:00
9:15 AM,75.2,68.0,78,30.23,10.0,East,4.6,-,N/A,,Clear,90,2013-04-27 13:15:00
9:35 AM,77.0,68.0,74,30.23,10.0,ENE,5.8,-,N/A,,Clear,70,2013-04-27 13:35:00
9:55 AM,78.8,68.0,69,30.23,10.0,NE,9.2,-,N/A,,Scattered Clouds,50,2013-04-27 13:55:00
10:15 AM,78.8,64.4,61,30.23,10.0,ENE,10.4,-,N/A,,Scattered Clouds,70,2013-04-27 14:15:00
10:35 AM,80.6,64.4,58,30.23,10.0,East,5.8,-,N/A,,Scattered Clouds,80,2013-04-27 14:35:00
10:55 AM,80.6,64.4,58,30.24,10.0,NE,11.5,-,N/A,,Scattered Clouds,50,2013-04-27 14:55:00
11:15 AM,80.6,64.4,58,30.24,10.0,NE,6.9,-,N/A,,Scattered Clouds,50,2013-04-27 15:15:00
11:35 AM,82.4,64.4,54,30.24,10.0,ENE,9.2,-,N/A,,Mostly Cloudy,70,2013-04-27 15:35:00
11:55 AM,82.4,62.6,51,30.23,10.0,NE,9.2,-,N/A,,Mostly Cloudy,50,2013-04-27 15:55:00
12:15 PM,82.4,62.6,51,30.22,10.0,NE,3.5,-,N/A,,Mostly Cloudy,40,2013-04-27 16:15:00
12:35 PM,84.2,60.8,45,30.22,10.0,East,10.4,16.1,N/A,,Scattered Clouds,100,2013-04-27 16:35:00
12:55 PM,86.0,60.8,43,30.21,10.0,East,9.2,-,N/A,,Mostly Cloudy,100,2013-04-27 16:55:00
1:15 PM,84.2,59.0,42,30.20,10.0,ENE,9.2,-,N/A,,Mostly Cloudy,60,2013-04-27 17:15:00
1:35 PM,86.0,59.0,40,30.19,10.0,East,4.6,-,N/A,,Mostly Cloudy,80,2013-04-27 17:35:00
1:55 PM,87.8,55.4,33,30.18,10.0,NE,13.8,17.3,N/A,,Scattered Clouds,40,2013-04-27 17:55:00
2:15 PM,86.0,55.4,35,30.18,10.0,East,8.1,-,N/A,,Scattered Clouds,80,2013-04-27 18:15:00
2:35 PM,87.8,55.4,33,30.17,10.0,ESE,9.2,16.1,N/A,,Scattered Clouds,110,2013-04-27 18:35:00
2:55 PM,84.2,59.0,42,30.17,10.0,ESE,6.9,-,N/A,,Mostly Cloudy,110,2013-04-27 18:55:00
3:15 PM,82.4,59.0,45,30.16,10.0,East,8.1,17.3,N/A,,Overcast,80,2013-04-27 19:15:00
3:35 PM,84.2,60.8,45,30.16,10.0,ENE,6.9,-,N/A,,Overcast,70,2013-04-27 19:35:00
4:15 PM,82.4,60.8,48,30.14,10.0,East,8.1,-,N/A,,Overcast,90,2013-04-27 20:15:00
4:35 PM,84.2,62.6,48,30.14,10.0,East,9.2,16.1,N/A,,Overcast,80,2013-04-27 20:35:00
4:55 PM,84.2,62.6,48,30.13,10.0,ENE,11.5,-,N/A,,Overcast,70,2013-04-27 20:55:00
5:15 PM,84.2,62.6,48,30.13,10.0,ENE,8.1,-,N/A,,Mostly Cloudy,70,2013-04-27 21:15:00
5:35 PM,84.2,60.8,45,30.12,10.0,East,8.1,-,N/A,,Mostly Cloudy,90,2013-04-27 21:35:00
5:55 PM,84.2,60.8,45,30.12,10.0,ENE,9.2,-,N/A,,Scattered Clouds,60,2013-04-27 21:55:00
6:15 PM,84.2,59.0,42,30.12,10.0,East,9.2,-,N/A,,Scattered Clouds,80,2013-04-27 22:15:00
6:35 PM,84.2,60.8,45,30.12,10.0,East,9.2,-,N/A,,Clear,80,2013-04-27 22:35:00
6:55 PM,82.4,59.0,45,30.12,10.0,East,11.5,16.1,N/A,,Clear,80,2013-04-27 22:55:00
7:15 PM,82.4,60.8,48,30.12,10.0,ENE,13.8,-,N/A,,Clear,70,2013-04-27 23:15:00
7:35 PM,80.6,60.8,51,30.13,10.0,East,8.1,-,N/A,,Clear,80,2013-04-27 23:35:00
7:55 PM,78.8,60.8,54,30.13,10.0,East,6.9,-,N/A,,Clear,80,2013-04-27 23:55:00
8:15 PM,78.8,60.8,54,30.13,10.0,East,6.9,-,N/A,,Clear,80,2013-04-28 00:15:00
8:35 PM,77.0,60.8,57,30.14,10.0,East,6.9,-,N/A,,Scattered Clouds,80,2013-04-28 00:35:00
8:55 PM,77.0,62.6,61,30.14,10.0,East,9.2,-,N/A,,Clear,90,2013-04-28 00:55:00
9:15 PM,75.2,64.4,69,30.15,10.0,East,6.9,16.1,N/A,,Clear,100,2013-04-28 01:15:00
9:35 PM,75.2,64.4,69,30.15,10.0,East,9.2,-,N/A,,Clear,90,2013-04-28 01:35:00
9:55 PM,75.2,64.4,69,30.16,10.0,East,6.9,-,N/A,,Clear,90,2013-04-28 01:55:00
10:15 PM,75.2,64.4,69,30.17,10.0,East,5.8,-,N/A,,Clear,90,2013-04-28 02:15:00
10:35 PM,73.4,64.4,73,30.17,10.0,East,6.9,-,N/A,,Clear,90,2013-04-28 02:35:00
10:55 PM,73.4,64.4,73,30.17,10.0,East,6.9,-,N/A,,Clear,90,2013-04-28 02:55:00
11:15 PM,73.4,64.4,73,30.17,10.0,East,5.8,-,N/A,,Clear,90,2013-04-28 03:15:00
11:35 PM,73.4,64.4,73,30.17,10.0,East,5.8,-,N/A,,Clear,80,2013-04-28 03:35:00
11:55 PM,73.4,66.2,78,30.17,10.0,East,5.8,-,N/A,,Clear,90,2013-04-28 03:55:00